Time,TemperatureF,DewpointF,PressureIn,WindDirection,WindDirectionDegrees,WindSpeedMPH,WindSpeedGustMPH,Humidity,HourlyPrecipIn,Conditions,Clouds,dailyrainin,SoftwareType,DateUTC
2013-01-19 00:00:00,32.8,23.4,30.17,SSW,210,14.0,14.0,68,0.00,,,0.00,Wunderground v.1.15,2013-01-19 05:00:00,
2013-01-19 00:05:00,32.8,23.4,30.17,SSW,204,13.0,14.0,68,0.00,,,0.00,Wunderground v.1.15,2013-01-19 05:05:00,
2013-01-19 00:10:00,32.8,23.4,30.17,SSW,197,14.0,17.0,68,0.00,,,0.00,Wunderground v.1.15,2013-01-19 05:10:00,
2013-01-19 00:15:00,32.8,23.4,30.17,South,187,15.0,17.0,68,0.00,,,0.00,Wunderground v.1.15,2013-01-19 05:15:00,
2013-01-19 00:20:00,32.9,23.5,30.16,SSW,196,15.0,16.0,68,0.00,,,0.00,Wunderground v.1.15,2013-01-19 05:20:00,
2013-01-19 00:25:00,32.9,23.5,30.16,SSW,201,15.0,16.0,68,0.00,,,0.00,Wunderground v.1.15,2013-01-19 05:25:00,
2013-01-19 00:35:00,32.9,23.8,30.16,South,184,13.0,13.0,69,0.00,,,0.00,Wunderground v.1.15,2013-01-19 05:35:00,
2013-01-19 00:40:00,32.9,23.8,30.16,SSW,211,13.0,13.0,69,0.00,,,0.00,Wunderground v.1.15,2013-01-19 05:40:00,
2013-01-19 00:50:00,32.9,23.8,30.16,SSW,200,12.0,12.0,69,0.00,,,0.00,Wunderground v.1.15,2013-01-19 05:50:00,
2013-01-19 00:55:00,33.0,23.6,30.16,SSW,198,12.0,12.0,68,0.00,,,0.00,Wunderground v.1.15,2013-01-19 05:55:00,
2013-01-19 01:00:00,33.1,24.0,30.16,SSW,210,13.0,14.0,69,0.00,,,0.00,Wunderground v.1.15,2013-01-19 06:00:00,
2013-01-19 01:10:00,33.1,23.7,30.15,SSW,198,12.0,12.0,68,0.00,,,0.00,Wunderground v.1.15,2013-01-19 06:10:00,
2013-01-19 01:15:00,33.2,23.8,30.15,South,176,13.0,13.0,68,0.00,,,0.00,Wunderground v.1.15,2013-01-19 06:15:00,
2013-01-19 01:20:00,33.2,23.8,30.15,SSW,201,12.0,12.0,68,0.00,,,0.00,Wunderground v.1.15,2013-01-19 06:20:00,
2013-01-19 01:25:00,33.2,23.8,30.15,SSW,196,11.0,12.0,68,0.00,,,0.00,Wunderground v.1.15,2013-01-19 06:25:00,
2013-01-19 01:30:00,33.1,24.0,30.15,South,181,11.0,15.0,69,0.00,,,0.00,Wunderground v.1.15,2013-01-19 06:30:00,
2013-01-19 01:35:00,33.2,24.1,30.15,SSW,212,12.0,15.0,69,0.00,,,0.00,Wunderground v.1.15,2013-01-19 06:35:00,
2013-01-19 01:40:00,33.1,24.0,30.15,SSW,194,12.0,12.0,69,0.00,,,0.00,Wunderground v.1.15,2013-01-19 06:40:00,
2013-01-19 01:50:00,33.3,24.2,30.15,South,183,12.0,13.0,69,0.00,,,0.00,Wunderground v.1.15,2013-01-19 06:50:00,
2013-01-19 01:55:00,33.3,24.2,30.15,SSW,211,12.0,13.0,69,0.00,,,0.00,Wunderground v.1.15,2013-01-19 06:55:00,
2013-01-19 02:00:00,33.3,24.2,30.15,SSW,193,12.0,12.0,69,0.00,,,0.00,Wunderground v.1.15,2013-01-19 07:00:00,
2013-01-19 02:10:00,33.3,24.2,30.15,SSW,207,11.0,13.0,69,0.00,,,0.00,Wunderground v.1.15,2013-01-19 07:10:00,
2013-01-19 02:15:00,33.3,24.2,30.16,SSW,209,11.0,13.0,69,0.00,,,0.00,Wunderground v.1.15,2013-01-19 07:15:00,
2013-01-19 02:20:00,33.2,24.1,30.16,SSW,201,11.0,11.0,69,0.00,,,0.00,Wunderground v.1.15,2013-01-19 07:20:00,
2013-01-19 02:25:00,33.2,24.5,30.16,SSW,198,11.0,11.0,70,0.00,,,0.00,Wunderground v.1.15,2013-01-19 07:25:00,
2013-01-19 02:30:00,33.2,24.5,30.16,SSW,201,10.0,14.0,70,0.00,,,0.00,Wunderground v.1.15,2013-01-19 07:30:00,
2013-01-19 02:35:00,33.1,24.4,30.16,SSW,198,10.0,14.0,70,0.00,,,0.00,Wunderground v.1.15,2013-01-19 07:35:00,
2013-01-19 02:45:00,33.2,24.5,30.16,SW,214,10.0,12.0,70,0.00,,,0.00,Wunderground v.1.15,2013-01-19 07:45:00,
2013-01-19 02:50:00,33.1,24.4,30.17,SSW,210,9.0,9.0,70,0.00,,,0.00,Wunderground v.1.15,2013-01-19 07:50:00,
2013-01-19 02:55:00,33.1,24.4,30.17,SW,228,8.0,9.0,70,0.00,,,0.00,Wunderground v.1.15,2013-01-19 07:55:00,
2013-01-19 03:00:00,33.0,24.3,30.16,SSW,207,8.0,12.0,70,0.00,,,0.00,Wunderground v.1.15,2013-01-19 08:00:00,
2013-01-19 03:10:00,33.1,24.4,30.15,SSW,197,10.0,10.0,70,0.00,,,0.00,Wunderground v.1.15,2013-01-19 08:10:00,
2013-01-19 03:20:00,33.3,24.6,30.15,SSW,212,10.0,10.0,70,0.00,,,0.00,Wunderground v.1.15,2013-01-19 08:20:00,
2013-01-19 03:25:00,33.5,24.4,30.16,SSW,201,9.0,10.0,69,0.00,,,0.00,Wunderground v.1.15,2013-01-19 08:25:00,
2013-01-19 03:30:00,33.5,24.4,30.15,SSW,207,8.0,8.0,69,0.00,,,0.00,Wunderground v.1.15,2013-01-19 08:30:00,
2013-01-19 03:35:00,33.5,24.4,30.15,SSW,202,8.0,8.0,69,0.00,,,0.00,Wunderground v.1.15,2013-01-19 08:35:00,
2013-01-19 03:40:00,33.4,24.7,30.14,SSW,204,8.0,9.0,70,0.00,,,0.00,Wunderground v.1.15,2013-01-19 08:40:00,
2013-01-19 03:50:00,33.3,24.6,30.14,South,184,7.0,7.0,70,0.00,,,0.00,Wunderground v.1.15,2013-01-19 08:50:00,
2013-01-19 03:55:00,33.2,24.5,30.14,SSW,211,6.0,9.0,70,0.00,,,0.00,Wunderground v.1.15,2013-01-19 08:55:00,
2013-01-19 04:00:00,33.2,24.5,30.14,SW,221,6.0,6.0,70,0.00,,,0.00,Wunderground v.1.15,2013-01-19 09:00:00,
2013-01-19 04:10:00,33.3,24.2,30.14,SW,228,6.0,6.0,69,0.00,,,0.00,Wunderground v.1.15,2013-01-19 09:10:00,
2013-01-19 04:15:00,33.4,24.3,30.14,SW,225,6.0,6.0,69,0.00,,,0.00,Wunderground v.1.15,2013-01-19 09:15:00,
2013-01-19 04:20:00,33.4,24.3,30.14,SW,232,5.0,5.0,69,0.00,,,0.00,Wunderground v.1.15,2013-01-19 09:20:00,
2013-01-19 04:25:00,33.3,24.6,30.14,SSW,207,5.0,5.0,70,0.00,,,0.00,Wunderground v.1.15,2013-01-19 09:25:00,
2013-01-19 04:30:00,33.2,24.5,30.14,SSW,210,6.0,6.0,70,0.00,,,0.00,Wunderground v.1.15,2013-01-19 09:30:00,
2013-01-19 04:35:00,33.3,24.6,30.13,SW,219,6.0,6.0,70,0.00,,,0.00,Wunderground v.1.15,2013-01-19 09:35:00,
2013-01-19 04:45:00,33.4,24.7,30.13,SSW,200,6.0,6.0,70,0.00,,,0.00,Wunderground v.1.15,2013-01-19 09:45:00,
2013-01-19 04:50:00,33.6,24.9,30.13,SW,214,7.0,7.0,70,0.00,,,0.00,Wunderground v.1.15,2013-01-19 09:50:00,
2013-01-19 04:55:00,33.7,24.6,30.13,SSW,208,8.0,8.0,69,0.00,,,0.00,Wunderground v.1.15,2013-01-19 09:55:00,
2013-01-19 05:00:00,33.9,24.8,30.13,SW,222,7.0,7.0,69,0.00,,,0.00,Wunderground v.1.15,2013-01-19 10:00:00,
2013-01-19 05:10:00,33.7,24.6,30.13,SW,224,7.0,7.0,69,0.00,,,0.00,Wunderground v.1.15,2013-01-19 10:10:00,
2013-01-19 05:15:00,33.8,24.7,30.13,SSW,198,7.0,7.0,69,0.00,,,0.00,Wunderground v.1.15,2013-01-19 10:15:00,
2013-01-19 05:20:00,33.8,24.7,30.13,WSW,245,7.0,9.0,69,0.00,,,0.00,Wunderground v.1.15,2013-01-19 10:20:00,
2013-01-19 05:25:00,33.9,24.8,30.13,SW,222,7.0,9.0,69,0.00,,,0.00,Wunderground v.1.15,2013-01-19 10:25:00,
2013-01-19 05:35:00,33.8,24.7,30.13,SSW,203,7.0,7.0,69,0.00,,,0.00,Wunderground v.1.15,2013-01-19 10:35:00,
2013-01-19 05:40:00,33.8,25.0,30.13,SW,214,7.0,7.0,70,0.00,,,0.00,Wunderground v.1.15,2013-01-19 10:40:00,
2013-01-19 05:45:00,33.7,25.0,30.13,SW,221,7.0,7.0,70,0.00,,,0.00,Wunderground v.1.15,2013-01-19 10:45:00,
2013-01-19 05:50:00,33.5,24.8,30.13,SSW,203,7.0,7.0,70,0.00,,,0.00,Wunderground v.1.15,2013-01-19 10:50:00,
2013-01-19 05:55:00,33.6,24.9,30.13,SW,214,7.0,7.0,70,0.00,,,0.00,Wunderground v.1.15,2013-01-19 10:55:00,
2013-01-19 06:00:00,33.7,25.0,30.13,SSW,210,8.0,9.0,70,0.00,,,0.00,Wunderground v.1.15,2013-01-19 11:00:00,
2013-01-19 06:10:00,33.8,25.0,30.13,SSW,204,8.0,8.0,70,0.00,,,0.00,Wunderground v.1.15,2013-01-19 11:10:00,
2013-01-19 07:50:00,33.5,24.8,30.12,SW,231,6.0,10.0,70,0.00,,,0.00,Wunderground v.1.15,2013-01-19 12:50:00,
2013-01-19 07:55:00,33.5,25.1,30.12,SW,214,6.0,10.0,71,0.00,,,0.00,Wunderground v.1.15,2013-01-19 12:55:00,
2013-01-19 08:00:00,33.5,24.8,30.11,SSW,210,6.0,9.0,70,0.00,,,0.00,Wunderground v.1.15,2013-01-19 13:00:00,
2013-01-19 08:05:00,33.7,25.0,30.11,SW,214,7.0,9.0,70,0.00,,,0.00,Wunderground v.1.15,2013-01-19 13:05:00,
2013-01-19 08:10:00,34.0,24.9,30.11,SW,214,8.0,12.0,69,0.00,,,0.00,Wunderground v.1.15,2013-01-19 13:10:00,
2013-01-19 08:20:00,34.7,24.9,30.12,SW,231,10.0,10.0,67,0.00,,,0.00,Wunderground v.1.15,2013-01-19 13:20:00,
2013-01-19 08:25:00,35.1,24.9,30.12,SW,214,10.0,10.0,66,0.00,,,0.00,Wunderground v.1.15,2013-01-19 13:25:00,
2013-01-19 08:30:00,35.3,25.1,30.12,SSW,203,10.0,10.0,66,0.00,,,0.00,Wunderground v.1.15,2013-01-19 13:30:00,
2013-01-19 08:40:00,35.7,25.1,30.12,SW,222,10.0,10.0,65,0.00,,,0.00,Wunderground v.1.15,2013-01-19 13:40:00,
2013-01-19 08:45:00,35.9,24.9,30.12,SSW,205,10.0,10.0,64,0.00,,,0.00,Wunderground v.1.15,2013-01-19 13:45:00,
2013-01-19 08:50:00,36.0,25.4,30.12,South,172,10.0,12.0,65,0.00,,,0.00,Wunderground v.1.15,2013-01-19 13:50:00,
2013-01-19 09:00:00,36.4,25.4,30.12,SSW,201,10.0,13.0,64,0.00,,,0.00,Wunderground v.1.15,2013-01-19 14:00:00,
2013-01-19 09:10:00,37.0,25.6,30.12,SSW,195,10.0,10.0,63,0.00,,,0.00,Wunderground v.1.15,2013-01-19 14:10:00,
2013-01-19 09:15:00,37.4,25.6,30.12,SSW,204,11.0,11.0,62,0.00,,,0.00,Wunderground v.1.15,2013-01-19 14:15:00,
2013-01-19 09:20:00,37.7,25.8,30.12,SW,221,10.0,10.0,62,0.00,,,0.00,Wunderground v.1.15,2013-01-19 14:20:00,
2013-01-19 09:25:00,38.0,25.7,30.12,SSW,198,10.0,14.0,61,0.00,,,0.00,Wunderground v.1.15,2013-01-19 14:25:00,
2013-01-19 09:30:00,38.4,25.7,30.12,SSW,206,11.0,12.0,60,0.00,,,0.00,Wunderground v.1.15,2013-01-19 14:30:00,
2013-01-19 09:40:00,39.3,25.7,30.12,SW,214,11.0,11.0,58,0.00,,,0.00,Wunderground v.1.15,2013-01-19 14:40:00,
2013-01-19 09:45:00,39.8,26.2,30.12,SW,232,12.0,12.0,58,0.00,,,0.00,Wunderground v.1.15,2013-01-19 14:45:00,
2013-01-19 09:50:00,40.1,26.1,30.12,SSW,197,12.0,12.0,57,0.00,,,0.00,Wunderground v.1.15,2013-01-19 14:50:00,
2013-01-19 09:55:00,40.4,26.4,30.12,SSW,200,13.0,13.0,57,0.00,,,0.00,Wunderground v.1.15,2013-01-19 14:55:00,
2013-01-19 10:00:00,40.7,26.6,30.12,SW,224,13.0,13.0,57,0.00,,,0.00,Wunderground v.1.15,2013-01-19 15:00:00,
2013-01-19 10:10:00,41.0,26.1,30.12,SW,217,13.0,13.0,55,0.00,,,0.00,Wunderground v.1.15,2013-01-19 15:10:00,
2013-01-19 10:15:00,41.3,26.8,30.12,SSW,194,13.0,13.0,56,0.00,,,0.00,Wunderground v.1.15,2013-01-19 15:15:00,
2013-01-19 10:20:00,41.5,26.5,30.12,SSW,208,13.0,13.0,55,0.00,,,0.00,Wunderground v.1.15,2013-01-19 15:20:00,
2013-01-19 10:25:00,41.8,26.8,30.12,SW,225,13.0,13.0,55,0.00,,,0.00,Wunderground v.1.15,2013-01-19 15:25:00,
2013-01-19 10:30:00,42.1,27.1,30.12,SSW,193,12.0,12.0,55,0.00,,,0.00,Wunderground v.1.15,2013-01-19 15:30:00,
2013-01-19 10:35:00,42.2,26.7,30.11,SW,214,14.0,14.0,54,0.00,,,0.00,Wunderground v.1.15,2013-01-19 15:35:00,
2013-01-19 10:40:00,42.5,27.5,30.11,SSW,208,15.0,15.0,55,0.00,,,0.00,Wunderground v.1.15,2013-01-19 15:40:00,
2013-01-19 10:50:00,42.9,27.4,30.11,WSW,243,14.0,18.0,54,0.00,,,0.00,Wunderground v.1.15,2013-01-19 15:50:00,
2013-01-19 10:55:00,43.2,27.7,30.10,WSW,241,13.0,18.0,54,0.00,,,0.00,Wunderground v.1.15,2013-01-19 15:55:00,
2013-01-19 11:00:00,43.6,28.5,30.10,South,178,12.0,14.0,55,0.00,,,0.00,Wunderground v.1.15,2013-01-19 16:00:00,
2013-01-19 13:05:00,50.1,29.0,30.00,SSW,199,12.0,22.0,44,0.00,,,0.00,Wunderground v.1.15,2013-01-19 18:05:00,
2013-01-19 13:15:00,50.3,28.6,29.99,SSW,204,13.0,22.0,43,0.00,,,0.00,Wunderground v.1.15,2013-01-19 18:15:00,
2013-01-19 13:20:00,50.4,27.0,29.99,SW,219,13.0,13.0,40,0.00,,,0.00,Wunderground v.1.15,2013-01-19 18:20:00,
2013-01-19 13:30:00,50.6,28.9,29.99,SSW,203,13.0,17.0,43,0.00,,,0.00,Wunderground v.1.15,2013-01-19 18:30:00,
2013-01-19 13:35:00,50.8,28.5,29.99,South,186,14.0,17.0,42,0.00,,,0.00,Wunderground v.1.15,2013-01-19 18:35:00,
2013-01-19 13:45:00,50.7,27.2,29.98,SSW,199,15.0,18.0,40,0.00,,,0.00,Wunderground v.1.15,2013-01-19 18:45:00,
2013-01-19 13:50:00,50.9,29.2,29.97,SSW,194,15.0,15.0,43,0.00,,,0.00,Wunderground v.1.15,2013-01-19 18:50:00,
2013-01-19 13:55:00,51.0,28.7,29.97,SSW,194,15.0,15.0,42,0.00,,,0.00,Wunderground v.1.15,2013-01-19 18:55:00,
2013-01-19 14:05:00,51.2,27.1,29.97,SW,225,16.0,16.0,39,0.00,,,0.00,Wunderground v.1.15,2013-01-19 19:05:00,
2013-01-19 14:10:00,51.2,28.3,29.97,South,176,16.0,16.0,41,0.00,,,0.00,Wunderground v.1.15,2013-01-19 19:10:00,
2013-01-19 14:20:00,51.8,29.4,29.96,SW,231,13.0,13.0,42,0.00,,,0.00,Wunderground v.1.15,2013-01-19 19:20:00,
2013-01-19 14:25:00,51.9,27.7,29.96,SW,221,13.0,13.0,39,0.00,,,0.00,Wunderground v.1.15,2013-01-19 19:25:00,
2013-01-19 14:30:00,51.8,27.0,29.96,South,187,15.0,19.0,38,0.00,,,0.00,Wunderground v.1.15,2013-01-19 19:30:00,
2013-01-19 14:40:00,52.0,27.1,29.95,SSW,193,14.0,14.0,38,0.00,,,0.00,Wunderground v.1.15,2013-01-19 19:40:00,
2013-01-19 14:45:00,52.2,26.7,29.95,SW,215,14.0,16.0,37,0.00,,,0.00,Wunderground v.1.15,2013-01-19 19:45:00,
2013-01-19 14:50:00,52.2,28.0,29.95,SSW,196,14.0,14.0,39,0.00,,,0.00,Wunderground v.1.15,2013-01-19 19:50:00,
2013-01-19 15:00:00,52.3,28.7,29.94,South,169,14.0,16.0,40,0.00,,,0.00,Wunderground v.1.15,2013-01-19 20:00:00,
2013-01-19 15:05:00,52.4,27.5,29.94,SSW,211,14.0,16.0,38,0.00,,,0.00,Wunderground v.1.15,2013-01-19 20:05:00,
2013-01-19 15:10:00,52.4,26.9,29.94,SW,224,13.0,13.0,37,0.00,,,0.00,Wunderground v.1.15,2013-01-19 20:10:00,
2013-01-19 15:20:00,52.7,27.8,29.93,SSW,208,12.0,12.0,38,0.00,,,0.00,Wunderground v.1.15,2013-01-19 20:20:00,
2013-01-19 15:25:00,52.8,27.9,29.93,SW,220,12.0,18.0,38,0.00,,,0.00,Wunderground v.1.15,2013-01-19 20:25:00,
2013-01-19 15:30:00,52.9,27.3,29.92,SSW,205,12.0,12.0,37,0.00,,,0.00,Wunderground v.1.15,2013-01-19 20:30:00,
2013-01-19 15:35:00,52.9,27.3,29.92,SSW,202,12.0,13.0,37,0.00,,,0.00,Wunderground v.1.15,2013-01-19 20:35:00,
2013-01-19 15:40:00,52.9,26.6,29.92,SSW,210,14.0,14.0,36,0.00,,,0.00,Wunderground v.1.15,2013-01-19 20:40:00,
2013-01-19 15:45:00,52.8,27.2,29.92,SW,219,15.0,18.0,37,0.00,,,0.00,Wunderground v.1.15,2013-01-19 20:45:00,
2013-01-19 15:50:00,52.8,26.6,29.92,SSW,208,14.0,14.0,36,0.00,,,0.00,Wunderground v.1.15,2013-01-19 20:50:00,
2013-01-19 16:00:00,52.9,26.0,29.91,SW,219,12.0,12.0,35,0.00,,,0.00,Wunderground v.1.15,2013-01-19 21:00:00,
2013-01-19 16:10:00,52.7,27.8,29.91,SSW,197,13.0,13.0,38,0.00,,,0.00,Wunderground v.1.15,2013-01-19 21:10:00,
2013-01-19 16:20:00,52.7,27.1,29.91,SSW,212,12.0,12.0,37,0.00,,,0.00,Wunderground v.1.15,2013-01-19 21:20:00,
2013-01-19 16:25:00,52.6,26.4,29.91,SW,217,11.0,12.0,36,0.00,,,0.00,Wunderground v.1.15,2013-01-19 21:25:00,
2013-01-19 16:30:00,52.5,26.9,29.90,SSW,193,10.0,13.0,37,0.00,,,0.00,Wunderground v.1.15,2013-01-19 21:30:00,
2013-01-19 16:40:00,51.9,28.3,29.90,SSW,201,9.0,10.0,40,0.00,,,0.00,Wunderground v.1.15,2013-01-19 21:40:00,
2013-01-19 16:45:00,51.7,26.2,29.90,SW,233,11.0,11.0,37,0.00,,,0.00,Wunderground v.1.15,2013-01-19 21:45:00,
2013-01-19 16:50:00,51.4,27.9,29.89,SSW,205,11.0,11.0,40,0.00,,,0.00,Wunderground v.1.15,2013-01-19 21:50:00,
2013-01-19 17:00:00,50.3,26.9,29.89,SSW,204,11.0,11.0,40,0.00,,,0.00,Wunderground v.1.15,2013-01-19 22:00:00,
2013-01-19 17:10:00,49.5,27.3,29.89,SSW,197,10.0,10.0,42,0.00,,,0.00,Wunderground v.1.15,2013-01-19 22:10:00,
2013-01-19 17:20:00,49.1,27.0,29.88,SW,214,10.0,10.0,42,0.00,,,0.00,Wunderground v.1.15,2013-01-19 22:20:00,
2013-01-19 17:25:00,49.1,27.0,29.88,SSW,196,10.0,10.0,42,0.00,,,0.00,Wunderground v.1.15,2013-01-19 22:25:00,
2013-01-19 17:35:00,48.7,26.6,29.87,SSW,198,9.0,14.0,42,0.00,,,0.00,Wunderground v.1.15,2013-01-19 22:35:00,
2013-01-19 17:40:00,48.8,26.7,29.87,SSW,210,9.0,11.0,42,0.00,,,0.00,Wunderground v.1.15,2013-01-19 22:40:00,
2013-01-19 17:45:00,48.5,27.6,29.87,SSW,205,9.0,11.0,44,0.00,,,0.00,Wunderground v.1.15,2013-01-19 22:45:00,
2013-01-19 17:50:00,48.1,27.2,29.87,SSW,202,8.0,8.0,44,0.00,,,0.00,Wunderground v.1.15,2013-01-19 22:50:00,
2013-01-19 17:55:00,47.6,27.3,29.87,SSW,202,8.0,9.0,45,0.00,,,0.00,Wunderground v.1.15,2013-01-19 22:55:00,
2013-01-19 18:00:00,47.3,27.0,29.86,South,181,8.0,8.0,45,0.00,,,0.00,Wunderground v.1.15,2013-01-19 23:00:00,
2013-01-19 18:10:00,47.3,27.0,29.85,SSW,210,9.0,11.0,45,0.00,,,0.00,Wunderground v.1.15,2013-01-19 23:10:00,
2013-01-19 18:20:00,47.1,27.4,29.85,SSW,203,8.0,8.0,46,0.00,,,0.00,Wunderground v.1.15,2013-01-19 23:20:00,
2013-01-19 18:30:00,47.3,27.5,29.84,South,188,10.0,14.0,46,0.00,,,0.00,Wunderground v.1.15,2013-01-19 23:30:00,
2013-01-19 18:40:00,47.9,28.1,29.83,SW,218,11.0,16.0,46,0.00,,,0.00,Wunderground v.1.15,2013-01-19 23:40:00,
2013-01-19 18:45:00,48.1,27.2,29.83,SW,214,12.0,16.0,44,0.00,,,0.00,Wunderground v.1.15,2013-01-19 23:45:00,
2013-01-19 18:50:00,48.3,27.4,29.83,SSW,198,12.0,15.0,44,0.00,,,0.00,Wunderground v.1.15,2013-01-19 23:50:00,
2013-01-19 18:55:00,48.3,27.9,29.83,South,187,12.0,15.0,45,0.00,,,0.00,Wunderground v.1.15,2013-01-19 23:55:00,
2013-01-19 19:00:00,48.5,27.6,29.83,SSW,212,12.0,17.0,44,0.00,,,0.00,Wunderground v.1.15,2013-01-20 00:00:00,
2013-01-19 19:10:00,48.5,27.6,29.83,South,190,13.0,13.0,44,0.00,,,0.00,Wunderground v.1.15,2013-01-20 00:10:00,
2013-01-19 19:20:00,48.3,27.9,29.83,SSW,204,11.0,11.0,45,0.00,,,0.00,Wunderground v.1.15,2013-01-20 00:20:00,
2013-01-19 19:25:00,48.2,27.3,29.83,WSW,238,12.0,12.0,44,0.00,,,0.00,Wunderground v.1.15,2013-01-20 00:25:00,
2013-01-19 19:30:00,48.2,27.3,29.84,SW,217,11.0,11.0,44,0.00,,,0.00,Wunderground v.1.15,2013-01-20 00:30:00,
2013-01-19 19:40:00,48.2,27.8,29.85,SSW,203,10.0,10.0,45,0.00,,,0.00,Wunderground v.1.15,2013-01-20 00:40:00,
2013-01-19 19:50:00,48.0,28.7,29.85,SSW,201,11.0,11.0,47,0.00,,,0.00,Wunderground v.1.15,2013-01-20 00:50:00,
2013-01-19 19:55:00,47.7,29.5,29.85,SSW,210,9.0,11.0,49,0.00,,,0.00,Wunderground v.1.15,2013-01-20 00:55:00,
2013-01-19 20:05:00,47.5,29.8,29.85,SSW,212,10.0,10.0,50,0.00,,,0.00,Wunderground v.1.15,2013-01-20 01:05:00,
2013-01-19 20:15:00,47.5,29.3,29.85,SW,231,11.0,12.0,49,0.00,,,0.00,Wunderground v.1.15,2013-01-20 01:15:00,
2013-01-19 20:20:00,47.4,29.2,29.85,SW,215,11.0,11.0,49,0.00,,,0.00,Wunderground v.1.15,2013-01-20 01:20:00,
2013-01-19 20:25:00,47.4,29.7,29.85,SW,225,10.0,12.0,50,0.00,,,0.00,Wunderground v.1.15,2013-01-20 01:25:00,
2013-01-19 20:30:00,47.3,29.1,29.85,SW,217,10.0,11.0,49,0.00,,,0.00,Wunderground v.1.15,2013-01-20 01:30:00,
2013-01-19 20:35:00,47.2,30.0,29.84,SW,215,10.0,11.0,51,0.00,,,0.00,Wunderground v.1.15,2013-01-20 01:35:00,
2013-01-19 20:40:00,46.9,29.7,29.84,SSW,204,10.0,10.0,51,0.00,,,0.00,Wunderground v.1.15,2013-01-20 01:40:00,
2013-01-19 20:50:00,47.0,29.8,29.83,SSW,200,12.0,12.0,51,0.00,,,0.00,Wunderground v.1.15,2013-01-20 01:50:00,
2013-01-19 20:55:00,47.0,29.3,29.83,SW,232,12.0,16.0,50,0.00,,,0.00,Wunderground v.1.15,2013-01-20 01:55:00,
2013-01-19 21:05:00,46.7,29.5,29.82,SSW,211,11.0,14.0,51,0.00,,,0.00,Wunderground v.1.15,2013-01-20 02:05:00,
2013-01-19 21:10:00,46.6,29.4,29.82,SSW,198,12.0,12.0,51,0.00,,,0.00,Wunderground v.1.15,2013-01-20 02:10:00,
2013-01-19 21:15:00,46.4,29.2,29.82,SW,214,12.0,17.0,51,0.00,,,0.00,Wunderground v.1.15,2013-01-20 02:15:00,
2013-01-19 21:20:00,46.4,29.7,29.82,SSW,205,11.0,12.0,52,0.00,,,0.00,Wunderground v.1.15,2013-01-20 02:20:00,
2013-01-19 21:30:00,46.5,29.3,29.82,WSW,238,12.0,12.0,51,0.00,,,0.00,Wunderground v.1.15,2013-01-20 02:30:00,
2013-01-19 21:35:00,46.5,29.3,29.83,SSW,204,11.0,13.0,51,0.00,,,0.00,Wunderground v.1.15,2013-01-20 02:35:00,
2013-01-19 21:45:00,46.3,29.1,29.82,SSW,210,11.0,14.0,51,0.00,,,0.00,Wunderground v.1.15,2013-01-20 02:45:00,
2013-01-19 21:55:00,46.5,28.8,29.82,SW,217,11.0,15.0,50,0.00,,,0.00,Wunderground v.1.15,2013-01-20 02:55:00,
2013-01-19 22:00:00,46.4,29.2,29.82,SSW,198,11.0,12.0,51,0.00,,,0.00,Wunderground v.1.15,2013-01-20 03:00:00,
2013-01-19 22:05:00,46.3,29.1,29.82,SSW,194,11.0,12.0,51,0.00,,,0.00,Wunderground v.1.15,2013-01-20 03:05:00,
2013-01-19 22:15:00,46.6,28.9,29.82,SW,225,12.0,14.0,50,0.00,,,0.00,Wunderground v.1.15,2013-01-20 03:15:00,
2013-01-19 22:20:00,46.9,29.2,29.81,SSW,205,14.0,14.0,50,0.00,,,0.00,Wunderground v.1.15,2013-01-20 03:20:00,
2013-01-19 22:25:00,46.9,29.2,29.81,WSW,239,13.0,16.0,50,0.00,,,0.00,Wunderground v.1.15,2013-01-20 03:25:00,
2013-01-19 22:35:00,47.0,29.3,29.81,WSW,242,13.0,18.0,50,0.00,,,0.00,Wunderground v.1.15,2013-01-20 03:35:00,
2013-01-19 22:50:00,47.1,29.4,29.81,SW,214,13.0,13.0,50,0.00,,,0.00,Wunderground v.1.15,2013-01-20 03:50:00,
2013-01-19 22:55:00,47.0,29.8,29.80,WSW,241,13.0,18.0,51,0.00,,,0.00,Wunderground v.1.15,2013-01-20 03:55:00,
2013-01-19 23:05:00,46.9,29.7,29.80,South,181,13.0,13.0,51,0.00,,,0.00,Wunderground v.1.15,2013-01-20 04:05:00,
2013-01-19 23:10:00,46.8,29.6,29.80,South,189,13.0,13.0,51,0.00,,,0.00,Wunderground v.1.15,2013-01-20 04:10:00,
2013-01-19 23:15:00,46.7,30.0,29.80,South,190,13.0,13.0,52,0.00,,,0.00,Wunderground v.1.15,2013-01-20 04:15:00,
2013-01-19 23:20:00,46.6,29.9,29.80,SSW,205,13.0,13.0,52,0.00,,,0.00,Wunderground v.1.15,2013-01-20 04:20:00,
2013-01-19 23:30:00,46.5,30.3,29.79,SW,233,13.0,13.0,53,0.00,,,0.00,Wunderground v.1.15,2013-01-20 04:30:00,
2013-01-19 23:35:00,46.5,30.3,29.79,SSW,198,13.0,13.0,53,0.00,,,0.00,Wunderground v.1.15,2013-01-20 04:35:00,
2013-01-19 23:40:00,46.5,30.7,29.79,South,182,13.0,13.0,54,0.00,,,0.00,Wunderground v.1.15,2013-01-20 04:40:00,
2013-01-19 23:45:00,46.6,30.4,29.79,SW,224,14.0,14.0,53,0.00,,,0.00,Wunderground v.1.15,2013-01-20 04:45:00,
2013-01-19 23:50:00,46.4,30.6,29.79,SW,223,14.0,14.0,54,0.00,,,0.00,Wunderground v.1.15,2013-01-20 04:50:00,
2013-01-19 23:55:00,46.3,30.5,29.78,SSW,198,13.0,14.0,54,0.00,,,0.00,Wunderground v.1.15,2013-01-20 04:55:00,